GFSCGP_850_spd_057.txt.gz
Wind_Speed
14 5 19 32 16 5 4 4 6 4 8 7 15 7 18 27 25 29 31 34 38 40 41 40 41 39 40 39 38 36 35 34 32 29 28 28 25 21 19 16 14 11 10 6
5 18 18 5 8 10 7 5 6 5 6 10 11 14 15 18 27 34 33 33 37 39 40 43 44 43 42 43 42 39 39 37 36 33 31 30 29 28 23 20 17 15 13 11
10 7 16 10 11 13 14 16 10 8 3 10 8 6 8 13 16 22 31 36 35 41 42 46 46 51 47 46 45 44 43 40 41 38 35 34 31 32 30 28 23 18 15 14
13 21 12 16 16 16 14 16 14 13 5 4 8 5 8 13 18 17 31 36 35 39 38 40 44 49 51 53 49 46 43 43 43 43 38 36 34 37 37 33 28 22 18 16
16 14 17 16 23 19 14 8 10 10 3 5 7 4 7 17 19 22 26 35 38 41 42 47 49 53 50 53 53 51 48 44 43 47 42 36 34 34 39 36 30 27 22 20
11 18 13 25 13 13 5 5 4 1 3 9 13 10 5 12 26 24 28 38 36 39 42 47 51 46 51 51 56 55 52 50 45 47 45 40 35 33 33 34 33 29 26 26
10 16 17 9 16 9 12 8 3 4 6 11 7 10 13 17 24 29 30 43 45 44 41 43 47 52 54 54 57 58 55 53 49 50 48 44 38 33 31 31 31 30 27 26
5 8 12 8 14 11 11 11 6 9 5 6 7 7 6 15 30 42 45 44 32 34 38 42 51 53 54 54 57 60 58 55 52 51 51 46 41 35 33 32 31 30 29 25
5 8 14 20 15 17 11 17 11 5 3 2 6 5 6 7 14 15 29 25 36 42 41 47 44 46 52 53 57 60 59 55 54 53 53 49 44 39 36 34 30 31 29 25
4 7 7 13 10 17 20 9 8 5 8 8 4 5 7 11 15 13 16 27 34 42 42 40 45 47 48 54 57 58 59 54 53 53 55 50 43 39 37 36 33 32 30 27
2 3 9 10 7 23 11 11 5 6 4 11 1 7 7 12 16 13 16 31 38 40 48 49 47 48 49 51 55 58 58 57 56 54 54 52 45 41 38 38 36 33 31 30
2 1 7 11 17 18 11 11 8 11 12 3 3 14 5 10 13 13 21 30 36 45 49 48 49 51 49 51 52 57 57 57 56 54 54 51 47 43 41 39 37 35 34 32
1 1 6 7 2 2 4 13 16 9 4 10 15 11 3 5 5 16 19 30 33 41 47 45 41 47 53 52 53 55 55 56 55 54 54 52 50 47 43 39 38 36 36 35
5 3 7 7 7 9 10 17 9 11 13 6 19 5 10 12 9 8 18 27 34 45 48 44 43 49 52 55 55 54 54 54 52 53 53 53 52 48 43 40 38 37 36 36
2 5 10 16 25 20 19 22 22 11 10 17 14 10 13 11 9 9 21 33 30 44 44 44 46 48 50 49 50 52 52 52 51 50 52 52 49 45 41 38 37 36 36 36
5 3 4 16 23 20 19 18 16 19 13 7 6 13 8 2 3 13 20 24 25 37 42 47 48 50 52 54 55 54 53 50 50 48 49 47 45 43 41 38 36 35 35 34
5 3 2 7 5 4 6 7 12 4 14 4 8 4 11 5 11 14 21 10 26 35 44 46 49 53 55 57 56 54 51 48 51 50 48 49 47 44 40 37 37 37 36 35
5 4 3 5 7 7 10 10 8 22 20 18 12 10 2 12 16 31 30 17 4 25 39 48 48 52 53 55 55 51 50 50 50 49 46 45 45 43 41 40 38 37 36 37
11 2 3 3 4 5 1 7 9 5 19 21 19 15 2 21 29 25 32 26 20 14 25 33 36 37 36 40 42 45 47 47 47 46 44 43 41 39 39 38 36 34 35 35
12 9 4 3 1 4 3 18 24 11 10 21 23 18 14 10 9 5 25 28 31 25 21 25 32 30 31 34 36 43 44 42 42 41 41 40 38 36 36 32 31 29 30 29
4 4 6 8 4 3 8 22 16 7 1 20 25 25 23 12 8 13 24 31 33 37 35 30 30 30 28 32 30 32 34 36 37 37 36 36 35 35 35 33 32 31 31 31
3 2 0 3 2 2 19 11 7 3 4 12 23 29 27 16 22 26 29 31 32 35 37 38 37 32 25 21 27 27 28 29 29 30 29 30 32 33 34 34 34 34 34 35
4 4 3 4 3 4 13 7 11 14 12 19 27 30 32 15 22 24 26 28 29 29 29 30 32 32 31 30 28 27 19 18 19 19 22 23 23 25 27 30 31 33 33 33
7 12 3 7 7 12 21 6 5 18 17 20 25 21 24 21 17 19 21 22 24 24 24 23 24 26 26 23 22 21 18 14 13 13 11 10 12 15 20 24 26 28 30 31
5 9 7 4 8 26 2 22 25 21 20 23 23 19 15 19 18 14 16 17 18 20 20 18 18 20 21 18 16 13 10 7 5 6 8 8 9 11 13 16 20 25 27 30
9 2 1 2 11 11 21 27 21 21 21 20 23 23 13 10 17 11 10 13 15 15 15 15 15 14 15 13 12 9 6 3 1 4 10 13 14 15 16 18 22 26 28 30

GFSCGP_850_spd_060.txt.gz
Wind_Speed
10 5 19 22 13 2 5 5 6 4 5 6 11 10 15 22 21 23 28 31 35 36 37 37 41 39 38 37 37 35 32 32 31 31 29 26 22 18 17 17 13 11 8 5
4 14 14 8 5 5 7 3 4 4 3 6 6 14 10 18 26 31 30 32 34 31 34 37 39 40 41 39 39 37 35 35 34 33 31 29 24 19 17 17 15 13 10 8
7 6 12 13 7 11 8 16 6 3 2 7 4 5 6 13 13 21 25 32 31 36 38 38 43 44 42 43 42 40 37 37 36 33 31 29 26 24 22 20 17 14 12 11
8 9 10 13 15 11 9 15 12 7 2 4 8 5 5 8 17 18 27 32 31 36 37 38 41 46 48 46 43 41 39 39 37 35 33 31 29 28 27 24 21 18 14 12
6 7 10 13 15 14 11 9 14 12 6 4 4 3 6 11 12 19 25 34 35 37 40 43 47 48 49 46 45 44 43 42 40 38 37 34 33 30 29 28 26 24 21 17
6 4 3 15 13 16 6 1 4 3 4 9 12 7 5 7 16 18 24 32 35 38 42 45 46 44 46 47 46 46 45 45 42 41 39 39 38 34 31 29 31 30 26 23
7 4 2 6 2 14 13 10 2 3 5 13 11 12 13 5 12 18 21 35 38 39 38 44 45 47 48 49 50 50 50 47 46 42 39 39 41 36 31 28 25 30 32 29
5 2 3 4 7 8 14 10 6 8 4 12 6 8 7 20 16 22 30 33 31 34 39 40 47 50 51 51 51 52 52 50 48 45 41 38 39 39 35 30 26 25 28 27
3 6 7 5 4 2 7 17 11 4 1 1 9 5 7 6 19 20 20 22 31 40 44 48 44 49 51 52 54 54 53 53 46 47 43 40 38 41 39 33 29 26 25 25
3 5 3 8 7 10 8 3 8 3 7 5 3 7 10 11 10 13 7 20 31 39 47 38 42 48 51 50 53 55 55 53 48 46 46 42 39 38 40 36 32 29 27 26
4 3 6 6 5 4 4 9 5 7 8 8 2 6 6 12 15 15 13 28 31 37 43 47 49 50 49 48 50 54 56 56 54 48 47 44 40 38 41 39 34 31 28 26
2 1 5 9 13 8 5 5 7 8 12 6 4 7 4 10 9 13 21 33 35 38 45 47 47 47 46 49 50 54 55 55 52 49 48 48 44 40 40 41 35 31 31 29
5 2 4 8 2 2 0 4 4 5 3 15 13 7 6 6 7 15 20 24 32 37 38 42 34 41 48 51 52 53 55 54 49 49 50 49 49 45 41 39 36 33 32 31
5 1 6 7 1 5 7 14 10 2 5 6 14 8 8 11 8 7 13 17 20 26 35 39 39 45 49 50 53 52 51 50 48 47 49 49 48 45 41 39 37 36 34 32
4 4 7 18 21 14 14 18 17 6 8 4 6 10 9 11 11 10 9 12 14 20 27 34 43 45 47 45 48 48 48 47 46 45 46 46 46 45 42 40 38 37 36 33
6 4 8 17 14 16 16 17 16 17 19 12 15 12 4 5 7 11 12 12 18 24 30 39 39 46 47 49 51 50 48 48 46 43 41 39 41 43 41 38 39 38 38 35
9 4 3 6 3 7 6 18 12 5 9 4 6 1 6 2 6 10 15 17 19 23 23 30 42 48 49 51 52 50 49 45 42 39 37 38 39 38 39 38 37 38 38 36
8 5 3 4 3 4 4 6 14 17 13 14 11 13 4 9 10 17 22 19 16 17 20 31 42 48 50 50 50 45 44 41 39 37 37 38 39 39 38 38 39 39 38 37
7 4 4 3 2 4 6 6 5 6 7 15 13 15 12 8 7 12 29 22 15 12 13 31 36 37 39 45 46 43 41 41 39 39 38 37 35 35 36 38 37 35 35 35
9 5 6 2 3 7 5 13 6 5 6 15 16 14 13 6 6 6 27 22 15 10 8 23 28 31 35 38 42 42 41 41 40 38 37 36 34 34 35 33 34 33 34 33
5 4 12 7 4 1 14 17 3 5 1 16 19 17 17 8 4 12 26 31 23 22 19 21 27 30 30 32 33 34 37 38 36 34 32 32 32 31 30 30 30 30 30 29
4 4 3 2 6 2 24 6 6 3 3 12 18 20 20 20 22 27 32 36 38 34 30 25 24 27 30 29 27 26 27 26 26 26 26 24 24 25 26 26 26 26 26 26
3 3 1 1 3 10 15 5 10 11 6 12 18 18 20 25 25 26 30 34 35 36 37 38 35 25 23 24 22 23 23 23 24 24 24 24 24 24 24 24 25 26 27 27
6 7 1 4 4 10 2 12 11 13 8 12 15 17 18 21 22 23 26 29 30 32 33 33 37 39 35 29 24 21 15 13 16 18 21 21 24 24 24 25 24 25 27 28
2 6 4 4 7 7 9 19 13 16 15 10 14 16 19 17 19 19 20 23 25 26 26 26 29 30 28 24 22 20 20 18 18 16 15 14 15 16 19 21 22 24 25 26
14 6 5 3 13 8 13 25 24 19 16 11 14 17 16 14 12 16 15 16 18 21 22 21 21 22 22 19 16 14 13 12 12 11 10 11 11 12 14 14 16 19 21 23

GFSCGP_850_spd_063.txt.gz
Wind_Speed
10 12 21 23 16 13 6 9 11 6 9 14 17 16 12 18 18 21 25 28 32 34 32 31 31 30 30 35 36 35 33 30 28 28 28 26 24 19 16 14 12 9 7 5
6 18 20 13 12 14 15 9 11 9 7 8 14 21 11 18 23 27 30 31 32 31 32 33 32 33 34 36 38 37 35 33 31 31 29 28 25 19 16 14 14 11 9 7
15 4 15 14 16 15 19 21 12 7 3 11 9 16 13 15 17 20 24 25 27 33 36 36 36 36 34 38 41 40 38 35 34 33 31 29 25 20 18 17 15 12 11 9
13 19 9 17 22 19 19 17 16 15 7 11 16 13 15 14 19 20 26 29 31 34 34 34 36 37 38 39 41 40 40 37 35 34 35 32 29 26 23 18 15 13 10 9
8 10 18 15 15 18 16 9 18 18 14 11 12 11 16 12 17 21 26 32 33 34 36 37 39 40 37 35 40 41 40 39 37 38 36 34 31 26 23 21 18 17 15 13
7 6 8 19 13 18 10 5 11 12 14 17 22 14 16 14 18 18 25 30 34 35 37 37 35 34 36 35 37 41 42 40 39 38 38 35 33 29 25 23 21 21 20 18
1 6 6 7 11 17 17 14 7 6 9 18 18 17 16 9 14 18 20 32 35 36 36 37 36 37 38 39 39 42 44 43 40 40 40 37 35 32 28 25 22 22 23 25
3 8 3 4 10 9 22 20 8 13 9 13 17 13 16 23 25 13 19 22 29 33 36 39 42 41 43 46 48 47 48 46 45 45 43 40 38 35 33 31 28 23 22 21
2 4 2 1 4 4 14 22 23 11 2 9 13 17 14 13 16 26 20 18 25 34 37 40 42 44 46 47 50 46 45 45 46 45 45 43 40 38 35 32 29 27 23 19
1 5 2 3 5 13 10 12 18 12 17 14 7 18 14 22 19 15 21 25 25 30 34 35 39 45 47 48 50 46 43 43 45 46 46 44 41 38 34 31 31 30 25 20
1 3 2 5 5 8 8 11 10 14 17 11 15 10 10 17 21 21 17 27 30 32 35 38 39 45 50 47 50 50 47 44 43 44 45 45 44 40 37 33 30 28 27 23
2 2 5 8 12 7 9 6 13 13 20 18 15 8 3 12 19 23 27 25 29 34 35 36 36 37 40 46 49 51 51 51 47 45 46 45 44 42 40 35 31 27 28 25
6 3 4 5 5 5 4 3 6 11 13 18 16 17 19 14 9 10 13 18 19 26 25 26 29 37 44 47 50 50 49 50 49 48 47 46 46 45 42 35 32 30 27 27
6 4 8 8 10 10 10 10 12 7 12 17 17 16 20 21 14 10 10 11 12 16 21 26 28 35 40 45 48 51 49 45 47 48 47 48 47 46 42 38 35 33 28 28
4 7 8 13 15 14 18 22 20 16 15 11 18 18 14 19 19 24 19 9 6 7 15 24 29 34 41 42 45 47 48 47 44 46 47 46 45 43 41 41 38 34 31 30
4 4 7 15 14 16 22 23 22 21 21 16 18 17 11 14 10 6 9 10 12 10 13 19 25 34 40 44 47 49 48 47 46 45 45 42 43 42 41 40 39 35 32 31
7 4 4 11 10 18 14 25 24 19 12 18 19 14 8 10 4 7 9 10 14 15 14 19 27 36 39 42 44 48 48 46 45 44 42 40 41 41 39 37 37 35 34 32
8 6 2 8 9 10 12 6 22 19 5 6 11 6 8 9 6 8 11 12 14 17 19 20 22 30 41 40 38 41 43 46 44 43 41 39 38 37 37 37 37 35 34 34
15 8 5 5 6 15 12 4 13 17 4 4 7 5 7 7 6 4 18 16 16 17 20 24 24 27 31 36 42 44 44 43 42 41 40 39 39 39 37 37 35 34 35 34
15 15 9 6 6 7 3 12 12 3 5 7 6 7 9 7 5 5 19 17 15 14 16 16 18 22 26 36 37 44 44 41 40 41 40 38 36 35 35 33 31 28 29 30
8 8 14 12 8 12 7 24 13 6 5 6 9 11 13 8 6 7 13 16 11 11 11 2 14 22 31 37 39 41 38 40 37 37 35 34 31 30 28 27 28 29 30 31
7 8 6 7 10 12 14 17 3 5 3 7 10 13 13 12 11 13 18 27 22 20 21 17 17 19 24 30 29 32 34 35 36 35 34 32 31 29 29 29 28 29 29 31
4 4 1 3 2 7 15 13 8 6 3 9 11 12 12 12 17 20 25 30 38 40 36 25 24 26 24 19 22 26 26 28 26 26 26 26 27 26 27 27 28 28 28 29
1 2 3 3 2 11 12 12 12 10 8 9 10 11 13 13 15 17 25 32 36 38 41 40 39 36 30 20 18 17 20 19 23 25 26 25 25 24 24 24 25 26 27 27
4 7 7 2 3 16 14 12 13 13 8 8 9 11 14 14 14 14 17 23 26 28 30 35 38 38 35 29 24 17 12 12 16 19 20 21 21 21 23 24 24 26 26 25
14 8 5 3 16 10 11 15 14 11 10 10 10 12 13 13 11 11 11 15 19 21 23 26 28 29 29 28 25 21 18 17 18 17 16 17 14 15 21 21 25 26 27 25

GFSCGP_850_spd_069.txt.gz
Wind_Speed
22 15 20 23 22 21 19 17 21 18 20 16 21 19 21 21 23 23 24 27 29 32 33 31 31 30 29 27 26 26 25 24 23 19 18 16 15 14 12 10 8 7 6 5
14 21 20 19 18 21 22 15 15 19 14 16 18 21 15 17 20 24 25 25 28 30 33 34 33 32 32 30 28 28 28 27 26 21 19 16 15 14 12 10 9 9 7 7
22 11 21 21 20 19 20 20 16 15 12 11 19 21 22 17 24 22 23 23 26 30 35 36 36 35 34 33 32 31 31 29 27 22 20 18 17 15 13 14 10 10 9 7
21 22 11 22 23 21 20 18 19 18 17 15 20 16 21 18 18 20 25 25 27 31 33 36 37 36 37 36 33 32 33 32 28 29 22 22 20 18 16 14 12 12 11 9
16 18 24 20 21 21 19 16 19 19 17 17 20 18 18 26 24 24 23 28 28 31 34 37 40 39 38 36 35 34 35 35 31 33 25 25 22 18 16 15 16 15 12 12
17 19 17 23 19 16 18 18 19 16 16 18 23 22 21 18 30 25 27 28 30 32 34 35 36 36 36 36 35 34 36 38 37 35 34 29 26 22 19 18 16 16 13 13
19 20 19 13 17 23 17 20 14 14 16 18 24 24 20 20 22 28 26 33 32 32 33 35 36 38 38 40 40 38 40 41 42 40 38 36 31 28 21 19 19 17 15 14
14 16 22 19 22 21 27 22 15 26 16 19 24 25 23 25 21 28 33 36 35 32 34 35 37 39 41 43 43 42 42 43 44 45 42 41 39 28 25 24 20 19 17 15
11 23 2 5 18 22 22 26 26 27 23 20 20 27 22 26 27 25 14 29 36 37 33 35 37 38 39 41 45 47 45 46 45 47 47 44 42 38 28 26 26 20 20 15
8 13 12 10 9 16 22 17 23 19 25 25 20 24 19 24 20 27 19 16 27 39 36 35 36 38 38 39 42 44 44 44 46 45 47 46 45 41 37 31 27 26 21 22
14 8 17 11 12 20 17 21 15 18 23 19 17 15 14 23 22 21 26 25 26 26 34 35 35 36 38 37 37 41 44 43 43 42 43 46 45 40 41 37 36 30 27 24
10 11 15 19 16 22 26 20 27 15 21 21 19 12 11 16 20 21 25 35 34 29 29 33 32 34 36 38 38 39 41 43 42 42 45 46 45 43 38 45 37 31 30 29
11 10 13 16 14 16 14 18 18 20 23 22 20 19 4 5 6 8 22 27 30 34 30 29 31 33 34 37 39 40 41 42 41 41 44 43 45 45 43 42 44 37 32 32
4 13 16 14 7 11 18 23 13 20 17 23 20 22 20 8 8 1 7 9 27 25 29 35 34 33 35 36 40 41 41 40 40 39 40 44 46 47 47 44 41 41 37 35
11 17 18 19 16 14 16 8 13 19 20 17 18 20 20 11 10 11 3 5 7 5 6 15 22 25 29 35 38 41 42 41 41 44 43 45 47 46 45 44 42 41 40 38
13 15 16 18 21 14 17 16 17 18 20 20 21 23 24 22 22 19 4 8 3 6 7 7 17 24 26 29 34 37 44 43 43 44 46 44 44 45 46 47 46 44 42 39
12 10 13 17 17 19 20 22 21 21 21 21 22 24 22 19 18 23 6 4 10 12 11 9 10 12 20 27 31 36 42 43 42 42 44 43 43 45 46 47 46 45 43 41
8 11 10 9 12 16 14 16 18 16 17 24 25 24 26 28 31 37 24 6 13 15 13 13 14 15 16 22 27 30 33 43 43 47 42 44 43 45 45 46 47 46 45 43
17 12 6 8 14 15 19 10 4 5 13 19 19 21 30 36 31 36 25 24 16 18 18 17 16 16 17 20 24 28 34 38 44 44 48 47 47 44 43 47 49 47 46 44
21 18 9 11 15 19 17 12 3 6 15 18 24 22 19 31 18 15 20 9 13 17 18 19 18 18 20 22 24 29 35 38 45 48 51 47 45 45 45 48 48 48 47 46
5 8 16 15 14 12 16 10 4 9 5 28 32 14 13 13 18 19 9 10 9 13 15 15 17 18 22 23 25 29 35 42 44 40 38 40 43 43 42 41 43 48 48 36
6 6 10 15 19 19 7 5 9 7 12 23 26 20 13 14 5 6 7 8 8 9 9 8 9 11 10 19 26 33 33 37 34 37 37 38 39 39 36 39 39 42 44 42
4 5 5 5 6 9 9 13 19 15 14 30 30 16 14 6 1 5 5 6 6 7 9 7 6 9 4 5 14 24 24 32 31 35 34 36 36 37 35 37 38 35 36 33
3 7 4 7 4 16 27 32 25 26 22 27 22 13 11 7 4 2 4 6 9 7 8 10 9 12 9 7 11 15 16 24 31 35 33 34 36 37 36 31 30 30 30 29
4 4 4 4 9 21 17 15 24 32 22 25 10 6 5 5 3 5 4 7 8 10 11 10 11 12 11 9 9 11 20 22 28 29 31 33 31 34 37 31 29 29 29 29
7 4 3 2 11 9 11 20 27 7 9 6 5 3 2 2 2 3 7 7 8 10 11 13 14 14 11 11 10 11 18 20 24 27 29 30 30 30 31 31 30 29 29 30

GFSCGP_850_spd_072.txt.gz
Wind_Speed
21 12 16 19 21 21 21 19 18 17 20 20 21 14 15 19 17 15 19 29 33 38 36 32 30 31 31 30 29 28 26 25 23 18 19 15 11 13 10 12 6 5 5 2
13 20 18 19 21 21 23 21 20 15 19 20 17 15 17 10 6 28 37 31 32 35 41 36 32 32 32 32 31 32 29 25 25 20 21 17 15 15 14 11 10 4 7 6
20 15 22 21 19 20 19 21 19 17 12 20 18 17 19 14 22 24 48 34 33 36 38 39 37 35 33 36 34 33 33 27 27 24 21 19 17 14 15 13 13 7 8 5
18 21 22 20 22 19 20 19 20 20 15 14 14 14 21 25 25 20 20 34 35 35 38 38 38 36 37 37 37 34 36 33 32 26 23 25 23 18 19 19 14 9 11 8
15 20 19 23 16 20 20 19 16 18 18 19 22 16 17 23 21 10 21 29 35 35 39 41 42 42 39 37 38 36 35 37 33 34 27 26 24 20 17 16 18 15 12 13
15 21 16 18 20 17 16 20 18 16 16 16 21 19 15 16 21 21 17 38 32 37 36 40 41 40 38 38 38 37 38 39 38 35 32 30 29 23 18 18 19 19 13 16
16 18 18 18 14 20 19 15 12 15 15 17 21 19 15 16 24 27 26 41 34 39 40 38 42 43 43 43 43 42 42 40 40 38 38 34 32 28 25 21 19 17 18 13
15 13 20 18 20 17 22 20 15 19 15 18 21 21 19 21 27 40 43 33 28 35 46 46 43 45 47 46 47 46 46 44 42 43 42 39 35 33 29 20 25 19 15 21
11 18 20 8 19 17 22 20 22 24 22 17 17 17 25 20 23 21 32 38 24 48 43 46 46 46 46 47 47 48 47 47 44 44 44 45 41 36 35 27 23 25 22 17
10 17 20 18 13 13 18 20 20 16 22 23 19 23 15 21 19 20 20 31 42 37 39 46 42 44 45 47 46 45 45 49 46 41 45 46 46 41 37 32 29 25 24 20
10 13 22 20 17 18 16 17 21 15 16 17 17 16 17 21 23 19 21 26 41 46 30 39 40 40 42 44 46 46 45 44 47 45 42 46 47 46 43 37 34 33 28 25
10 12 16 19 23 15 16 18 22 14 19 16 18 17 12 17 23 18 18 26 24 47 48 26 14 41 41 41 44 46 47 45 45 47 45 44 45 45 46 45 40 39 35 31
11 12 11 17 18 22 15 23 23 22 21 19 16 19 18 13 7 22 20 22 22 22 32 16 26 46 47 46 43 44 46 48 44 44 45 43 44 44 46 46 46 43 39 37
12 13 16 15 15 15 14 20 20 24 16 18 19 19 20 12 21 11 9 12 18 17 24 33 33 55 55 49 48 43 44 44 45 43 44 44 46 47 47 44 44 42 41 41
8 16 19 22 27 20 21 19 15 22 21 21 19 21 15 20 18 22 28 4 11 8 15 23 18 33 37 38 46 45 41 43 42 44 44 45 46 47 45 44 44 43 44 42
9 10 18 20 22 21 23 21 20 22 29 22 23 20 17 23 27 26 23 35 13 19 21 20 11 6 39 46 46 47 46 44 43 44 46 43 43 44 45 44 44 43 43 46
6 5 8 17 18 20 21 24 19 18 18 13 18 20 17 8 14 18 23 27 26 14 17 20 17 13 6 15 26 38 44 43 44 45 44 44 43 45 46 44 44 43 45 44
10 6 1 8 11 13 16 18 20 21 20 19 21 20 21 20 24 19 20 29 28 13 12 13 16 18 14 11 23 40 40 43 42 44 43 44 45 46 45 46 46 46 44 46
16 12 5 4 10 16 17 14 7 12 19 16 14 15 23 28 22 28 21 28 33 21 9 13 14 17 20 20 17 9 33 39 44 42 47 46 47 47 47 47 46 47 45 44
14 13 8 9 8 9 15 10 12 12 10 8 13 15 20 27 14 12 13 4 19 14 9 13 14 17 19 22 24 25 18 35 42 44 44 43 44 44 46 47 46 46 46 46
7 7 14 11 12 12 12 0 10 9 6 12 13 16 24 16 25 14 10 5 11 15 14 14 14 17 18 19 22 31 31 34 39 39 40 42 41 45 45 44 42 43 44 44
5 6 5 9 13 15 15 5 11 11 19 19 18 18 22 28 31 21 9 8 7 9 13 13 11 12 14 21 18 28 35 26 34 36 40 41 43 42 42 42 42 41 42 43
2 4 4 5 4 19 16 20 22 19 21 28 27 22 21 24 25 18 13 10 10 8 11 13 12 13 16 15 10 12 27 30 24 36 38 39 41 43 40 42 44 42 43 43
3 6 3 9 6 22 25 25 23 20 23 27 29 26 22 22 25 18 11 9 8 10 10 12 12 13 14 13 10 8 20 25 29 38 38 38 38 40 43 39 41 44 43 44
4 11 5 5 11 25 11 24 26 30 36 30 28 24 26 18 15 11 11 13 13 12 11 10 10 11 13 12 10 6 13 17 24 34 35 35 36 39 40 41 39 41 41 42
3 2 2 3 16 8 17 21 22 23 37 22 25 28 18 13 14 7 5 3 5 7 8 8 10 9 9 8 6 3 5 15 18 22 29 30 32 34 37 40 35 37 36 37

GFSCGP_850_spd_075.txt.gz
Wind_Speed
12 3 8 9 10 10 14 15 13 10 12 9 15 18 24 29 28 35 35 33 34 38 32 34 41 37 38 35 32 27 26 23 22 23 29 22 16 15 13 13 7 8 5 6
6 11 9 10 13 12 17 16 16 14 14 9 9 13 20 18 27 40 38 30 29 38 36 37 37 43 41 39 36 32 29 27 23 23 30 22 17 17 14 12 12 4 7 4
10 11 18 15 12 15 15 11 13 12 19 14 6 4 9 12 14 17 20 22 10 43 40 39 35 44 42 41 39 35 35 30 27 23 27 23 17 18 15 15 14 9 6 7
10 17 15 16 16 14 9 10 12 14 10 5 5 4 6 12 8 15 19 13 9 5 44 41 42 42 46 43 39 36 37 35 30 27 27 28 24 23 19 17 13 8 8 7
8 11 12 16 13 15 12 10 9 10 9 5 18 3 6 16 7 7 20 9 17 25 33 47 48 42 45 44 42 40 35 39 35 31 29 31 28 25 20 18 17 13 8 9
9 19 6 7 12 12 6 7 11 7 2 5 11 2 10 11 17 9 16 27 15 41 34 50 52 47 42 46 44 42 38 40 39 35 32 33 32 28 23 23 23 19 15 10
6 10 11 13 9 6 7 4 3 4 5 10 8 7 10 6 21 26 30 40 48 48 37 44 49 48 44 46 48 47 44 40 42 38 36 34 33 31 26 20 21 22 20 14
4 9 8 4 6 6 7 7 5 7 5 9 9 8 9 12 19 37 50 56 46 51 46 51 52 52 49 48 49 49 49 45 42 42 41 37 33 34 29 24 22 22 19 17
7 6 17 15 16 13 9 7 8 6 9 7 6 9 18 11 9 22 34 34 38 35 40 46 52 54 53 50 52 53 51 48 44 42 41 42 36 37 35 30 22 22 17 13
8 5 6 14 17 10 9 5 3 3 7 12 5 11 6 6 13 14 20 34 39 37 38 39 27 45 56 55 53 52 51 49 44 42 44 45 42 36 38 35 30 29 22 22
5 3 9 9 4 9 12 3 4 2 3 10 9 7 9 8 7 18 19 41 40 39 38 39 42 32 41 55 53 54 54 50 47 42 41 45 46 42 39 39 35 31 31 28
9 4 5 13 18 17 15 12 9 4 8 4 3 6 23 13 19 38 16 40 50 53 42 34 29 41 26 45 52 57 58 54 49 44 41 40 46 46 43 41 40 37 32 30
7 4 4 9 9 1 6 12 13 2 3 9 5 5 12 13 15 31 34 40 34 42 41 39 31 36 55 39 55 57 59 57 52 47 45 43 41 46 48 46 44 41 37 34
7 3 4 5 11 10 12 22 22 11 6 9 10 12 10 13 15 23 29 43 28 40 46 50 40 45 45 44 47 48 55 54 52 48 47 46 44 43 43 47 47 45 43 38
4 4 8 14 17 16 17 19 23 20 11 3 10 11 3 6 11 18 24 32 37 20 11 20 27 29 49 43 44 47 42 48 46 47 47 47 44 42 40 41 44 46 47 43
1 5 7 13 17 19 20 18 19 21 19 11 12 15 7 17 23 24 23 27 25 26 16 12 11 28 36 45 41 29 35 44 48 46 47 44 41 40 40 40 41 42 44 46
1 2 3 5 10 15 15 14 16 20 19 11 10 5 10 11 14 24 24 24 28 30 37 14 18 15 11 21 29 36 36 35 49 51 50 47 43 41 39 39 41 42 41 44
7 4 4 4 4 5 7 16 17 19 20 16 12 9 14 18 24 21 33 25 33 26 33 32 20 22 22 14 24 28 36 31 53 52 53 51 48 45 41 38 40 41 41 41
7 2 2 3 4 8 11 5 11 10 8 17 19 17 23 24 20 17 37 35 13 11 27 35 28 16 17 11 2 1 32 40 35 53 53 52 50 47 44 42 39 40 40 40
10 6 4 2 4 5 6 7 15 11 2 21 22 15 20 21 6 7 37 35 23 34 36 31 26 18 14 13 10 9 8 29 26 38 51 51 49 49 47 44 41 38 39 40
5 2 6 7 5 5 14 18 5 7 6 23 22 19 18 8 9 23 24 30 24 11 13 15 14 17 15 17 15 13 6 20 25 42 46 48 48 49 48 45 42 41 40 39
3 4 3 4 6 5 28 12 7 11 25 22 21 22 19 13 22 21 21 25 22 18 19 17 16 15 17 20 23 23 19 11 17 12 44 44 45 46 45 46 45 43 41 41
1 2 3 2 5 16 18 17 17 19 20 28 26 26 24 18 15 16 22 19 20 17 16 19 20 19 21 20 21 22 22 19 15 20 23 44 43 43 43 45 46 44 43 42
2 4 2 4 3 18 26 16 22 22 23 27 29 35 33 26 18 14 15 16 17 18 15 18 23 25 26 22 20 21 23 22 21 21 26 35 45 41 43 42 44 44 44 44
3 5 3 5 11 22 4 25 26 28 30 31 30 40 39 27 24 13 11 11 15 12 12 15 19 23 26 23 20 19 21 22 20 23 27 29 41 42 41 44 42 43 45 45
5 4 2 3 10 12 18 24 25 26 27 27 33 37 25 26 23 14 15 15 10 11 9 10 14 18 18 16 15 16 15 18 14 9 17 28 37 40 40 42 42 42 43 43

GFSCGP_850_spd_078.txt.gz
Wind_Speed
6 3 4 8 6 6 3 2 8 14 12 5 7 18 22 18 25 24 26 34 36 31 33 27 39 39 35 35 35 30 27 24 30 30 25 21 20 18 15 12 8 9 11 11
4 4 7 5 6 7 6 5 10 11 5 3 9 14 22 20 24 33 37 43 41 39 33 30 37 45 43 39 36 33 28 21 25 33 29 23 21 18 12 14 9 8 10 13
6 9 8 7 7 7 6 5 8 10 10 0 14 6 12 12 14 22 19 19 39 46 39 38 40 48 45 43 40 35 31 26 26 29 33 24 22 19 18 18 14 11 11 11
5 16 9 9 10 5 6 8 10 8 3 2 2 4 10 15 13 16 21 20 30 38 46 39 46 51 51 48 41 37 34 30 27 26 37 32 28 28 24 20 19 13 12 11
6 6 7 10 8 9 11 12 8 2 3 5 3 4 2 16 12 18 25 26 35 42 39 41 42 48 51 48 45 41 36 32 29 29 32 37 31 29 24 20 18 14 13 12
6 6 4 5 5 4 11 4 5 5 4 2 3 4 2 15 24 15 19 29 37 45 47 42 37 45 51 51 48 44 39 35 33 32 30 36 33 31 27 23 21 18 15 13
6 5 4 6 4 6 3 6 3 4 2 6 2 4 8 18 13 20 25 39 37 40 45 49 45 42 51 55 52 47 42 39 36 36 34 33 35 33 30 26 25 22 19 16
3 6 8 7 4 3 4 7 6 6 3 2 5 4 6 11 18 36 41 45 40 40 46 49 53 41 51 53 54 50 46 42 39 38 38 35 37 36 33 27 28 24 24 17
4 5 2 10 4 1 7 1 6 4 3 4 3 7 9 11 6 17 30 32 40 44 36 46 45 48 49 53 54 53 49 45 42 39 38 39 38 38 36 31 24 27 25 17
5 4 4 7 8 10 7 4 4 3 2 2 4 2 6 9 13 8 5 23 38 46 31 39 46 50 49 52 52 52 50 49 45 42 40 40 40 40 39 35 28 29 24 21
5 3 7 4 5 4 7 6 5 0 4 5 3 5 1 4 6 3 8 20 45 42 41 44 46 51 54 48 50 53 53 52 49 45 42 40 43 42 42 40 34 28 26 25
4 3 3 5 4 5 4 6 5 4 7 1 5 4 3 7 6 15 20 32 19 45 38 50 49 51 54 57 52 51 54 53 52 47 44 41 43 44 42 44 41 34 32 28
5 4 4 10 6 8 6 7 4 3 2 1 5 4 4 9 14 23 30 43 9 34 35 41 47 55 51 44 48 48 50 53 53 49 45 42 42 46 47 44 45 42 37 34
6 4 5 3 2 5 8 14 8 4 2 8 5 8 10 11 11 18 31 41 29 15 18 26 24 36 39 34 45 42 42 48 51 53 47 44 43 45 47 47 45 46 43 39
5 2 4 3 6 10 13 13 12 7 4 2 10 12 6 8 7 13 27 33 33 26 9 1 14 17 21 24 33 47 40 42 47 53 50 48 44 44 43 45 48 47 46 45
6 1 4 2 4 9 12 15 11 12 9 5 10 11 6 8 22 25 18 22 27 37 25 10 10 21 30 30 20 47 43 36 43 49 50 46 46 47 47 44 43 45 50 49
1 2 3 2 4 5 7 4 3 8 7 3 5 6 9 9 14 21 22 18 16 16 23 26 32 26 23 47 37 21 27 29 36 40 44 47 45 49 49 45 43 45 44 47
4 5 3 3 3 1 6 7 7 9 12 10 7 13 14 17 6 25 34 34 18 11 13 19 25 20 23 12 23 24 25 30 35 36 39 43 46 48 47 45 41 42 43 42
2 4 2 3 3 6 10 9 5 3 5 12 12 14 22 33 4 16 32 33 25 20 18 15 14 17 13 9 7 5 10 25 30 42 37 37 44 50 47 44 39 38 39 40
5 3 4 2 2 5 2 14 20 11 5 15 16 15 21 23 5 4 29 26 26 21 18 13 11 9 11 14 12 10 8 7 25 31 31 35 40 46 46 45 40 38 38 37
4 3 1 5 5 5 8 23 24 6 1 20 14 14 18 9 11 26 26 21 19 17 16 15 13 13 12 18 20 18 18 12 20 32 35 32 32 48 55 51 44 42 41 39
1 1 2 2 4 5 18 8 5 9 23 17 13 15 18 23 27 25 26 25 21 21 21 17 16 17 15 16 21 20 19 17 18 26 29 33 37 44 49 51 49 46 44 43
2 3 2 5 4 2 9 9 9 13 18 25 23 19 17 23 28 30 27 24 22 18 18 14 14 18 21 23 24 22 23 23 22 18 21 31 35 42 43 47 51 47 46 47
2 2 2 4 3 10 25 11 14 18 20 22 25 25 25 29 29 32 31 23 19 16 17 19 18 23 27 29 25 21 21 22 23 22 18 24 26 35 40 44 47 48 47 50
5 2 4 6 14 14 6 19 22 23 22 21 23 22 28 32 38 31 30 23 17 19 16 19 21 23 27 27 24 18 17 20 20 19 20 21 27 30 36 44 46 47 47 47
10 6 5 5 7 7 20 21 23 22 24 26 24 24 25 23 26 28 27 23 22 20 16 18 18 19 24 19 24 19 17 19 22 19 16 18 22 30 33 41 46 45 45 45

GFSCGP_850_spd_084.txt.gz
Wind_Speed
5 4 6 6 6 4 3 5 3 2 4 3 7 9 4 15 13 18 23 26 32 34 33 32 34 33 30 32 32 30 26 26 23 19 17 17 15 11 10 8 5 6 6 5
5 4 8 7 5 4 3 1 1 3 2 4 3 3 4 8 9 20 26 25 28 29 36 33 36 39 36 36 33 32 28 27 25 20 18 17 14 12 10 8 6 6 6 6
7 6 8 6 5 5 2 4 2 3 4 4 2 4 2 1 1 10 19 25 24 31 33 37 39 40 41 41 38 34 31 29 27 23 22 20 16 14 14 12 10 7 6 4
4 3 7 4 4 5 1 7 5 3 3 2 2 3 2 3 4 5 11 25 28 31 27 37 42 41 45 44 39 35 33 32 29 27 26 23 22 19 16 14 10 8 8 7
6 7 5 3 5 7 7 4 6 4 3 3 3 4 4 2 7 13 19 24 32 33 29 32 44 43 41 44 42 39 36 35 31 30 30 27 25 20 17 15 14 12 9 9
2 1 3 6 4 8 4 5 7 5 3 2 5 5 4 5 7 11 16 27 31 36 36 29 36 43 44 43 44 42 41 38 34 31 30 32 28 24 22 19 16 14 11 10
5 4 5 3 3 3 5 6 2 2 2 5 3 4 5 6 9 11 15 25 34 39 38 35 34 41 45 47 46 44 43 43 36 34 31 30 32 29 25 22 19 15 15 12
4 4 7 8 3 4 3 7 5 5 5 3 4 4 1 5 16 17 10 13 24 34 39 34 39 39 43 46 46 48 47 45 41 36 33 29 30 32 29 26 22 20 17 13
4 2 5 5 7 2 3 4 3 7 3 4 2 3 3 9 16 22 24 4 9 20 33 42 36 41 41 46 47 48 48 48 46 38 35 32 30 30 30 29 25 24 20 17
1 4 3 6 5 9 7 1 3 3 4 3 3 3 4 13 16 15 19 20 13 8 22 29 37 43 45 47 47 48 46 46 49 44 38 35 32 31 30 30 29 27 24 22
2 4 4 4 7 4 5 5 6 5 3 5 4 2 5 6 7 11 20 26 25 20 14 28 33 39 48 49 48 49 50 48 50 49 44 39 35 32 31 30 31 29 27 24
4 4 5 3 5 4 5 3 3 4 3 1 3 3 4 8 14 16 22 27 25 23 19 14 32 37 40 47 49 50 49 49 49 50 49 42 38 34 33 32 32 31 31 28
1 3 4 4 6 5 6 5 4 4 3 1 4 4 4 13 18 24 23 30 27 26 22 16 5 23 36 41 45 48 50 49 47 49 50 49 44 40 36 31 32 33 33 31
6 3 3 6 4 3 4 2 3 5 3 3 4 2 7 13 12 22 29 30 25 32 25 19 9 8 21 31 38 41 44 46 46 45 46 48 48 45 41 36 31 33 35 36
4 4 2 4 4 3 3 3 2 2 4 4 4 3 4 4 7 15 21 29 32 31 29 27 15 8 3 11 26 31 36 38 40 41 41 42 45 46 44 42 38 34 35 36
5 2 2 3 4 3 3 5 6 5 3 6 6 3 7 6 12 23 24 27 28 30 29 23 26 19 7 4 12 16 26 29 29 32 32 34 38 40 45 44 43 39 37 37
3 4 3 3 2 3 3 2 1 1 3 2 4 2 8 8 15 16 21 22 22 27 29 24 21 23 19 11 7 15 11 15 21 25 29 30 31 37 38 40 41 42 40 37
3 3 2 3 2 3 4 4 4 2 3 3 1 4 6 10 22 14 10 19 21 22 24 25 21 19 19 17 9 6 11 16 14 23 28 30 30 33 34 36 39 40 39 39
3 4 3 3 1 3 3 4 4 4 1 9 6 12 12 19 17 5 4 19 21 22 21 18 20 18 15 17 16 14 5 9 11 11 19 29 32 30 30 33 35 37 38 39
5 6 4 1 2 2 2 3 6 3 4 8 10 14 17 16 3 3 16 30 28 22 20 20 18 19 18 15 15 14 16 11 4 6 9 18 27 29 31 30 32 30 32 36
3 3 4 3 1 4 3 8 6 2 3 8 7 10 15 7 9 28 32 32 32 30 27 21 19 18 21 19 17 13 12 18 16 8 5 6 18 20 23 27 27 28 28 30
3 5 3 2 3 6 3 3 3 3 14 17 18 17 19 25 27 27 35 35 35 35 31 23 24 21 18 20 20 21 15 13 13 17 15 11 12 13 24 23 25 28 30 30
2 5 4 6 5 4 8 6 3 5 8 14 18 23 24 29 33 31 31 39 37 36 36 31 27 26 22 21 21 20 20 19 19 21 23 22 22 15 14 22 28 25 26 28
2 5 2 4 3 12 16 6 5 4 7 11 14 19 23 29 32 36 35 35 39 38 38 35 30 29 28 22 23 22 17 21 22 22 26 29 27 25 21 18 22 32 33 34
5 10 6 5 9 12 10 5 7 7 13 18 20 23 29 29 30 32 33 31 38 41 37 33 32 32 31 25 24 22 20 20 23 23 25 26 25 23 28 23 21 25 33 35
12 7 5 5 10 5 4 1 4 10 14 17 21 25 33 28 28 30 30 31 34 37 34 36 33 32 31 26 26 25 23 23 23 23 26 25 29 30 26 29 29 22 28 29

GFSCGP_850_spd_087.txt.gz
Wind_Speed
10 7 13 13 7 2 6 7 9 3 3 4 7 7 6 14 15 17 22 26 26 28 26 23 25 22 20 21 25 26 26 25 23 21 19 17 14 11 9 8 6 5 5 7
7 13 10 9 7 5 7 7 5 2 3 3 1 1 2 8 14 20 25 25 25 25 24 24 24 24 24 24 27 27 27 26 24 20 18 17 14 12 9 9 6 5 5 4
10 6 11 10 9 9 5 8 5 3 1 3 1 4 2 2 7 14 21 22 24 26 27 24 24 26 29 27 30 30 27 26 24 20 18 16 15 14 12 11 8 6 5 4
7 6 13 11 10 10 10 7 5 3 2 4 3 5 2 1 8 12 20 24 25 27 26 27 27 26 30 32 31 31 30 28 26 22 19 18 18 17 15 11 9 7 6 5
5 12 15 12 12 9 4 7 7 4 3 3 3 4 3 2 4 10 15 21 28 28 29 29 31 31 30 32 35 34 32 30 28 26 22 20 20 18 14 13 11 9 7 6
3 3 6 11 7 12 11 8 6 4 2 6 4 4 6 7 13 14 11 21 23 27 29 28 28 27 30 32 36 38 36 34 32 29 27 24 20 20 18 16 14 14 11 8
3 2 2 3 8 6 7 9 5 6 5 6 2 4 6 9 14 16 10 12 23 25 28 27 28 29 32 33 35 38 39 38 35 33 31 28 23 22 22 19 17 16 15 11
5 7 5 7 2 5 14 12 5 8 9 8 2 8 5 8 16 21 19 7 7 20 23 26 28 30 31 35 40 39 39 39 38 35 33 32 27 25 26 24 21 17 15 11
4 4 3 8 7 2 6 8 2 5 1 8 6 5 6 13 17 23 22 19 15 4 14 24 26 29 32 37 40 42 42 39 39 37 34 34 32 27 27 28 25 22 19 15
2 6 6 5 1 11 2 5 6 2 8 10 5 5 3 12 15 16 21 22 19 15 10 11 23 30 30 33 37 39 40 39 39 36 37 35 33 29 25 26 29 27 22 20
2 1 3 2 8 7 1 3 4 2 2 6 8 4 4 6 9 12 17 20 23 21 18 14 16 22 27 31 33 39 38 38 38 41 39 39 36 33 28 26 26 29 26 24
4 4 5 5 2 4 6 3 1 7 6 2 0 5 7 7 11 13 16 19 20 22 21 21 17 10 18 25 28 33 37 38 38 38 37 40 40 38 34 29 27 27 30 27
3 3 5 2 2 1 4 4 3 2 1 4 7 6 7 11 14 15 16 20 22 23 26 23 22 13 6 15 22 27 31 36 36 38 40 38 40 42 39 35 30 29 28 30
3 4 3 1 4 3 3 1 4 3 3 7 2 11 7 11 12 15 17 19 21 25 29 32 23 17 12 9 17 22 26 32 35 35 36 39 38 40 41 38 35 31 30 30
3 4 5 7 5 2 2 2 3 3 3 2 8 5 7 9 10 13 12 15 20 25 28 29 29 24 15 10 5 17 20 26 31 33 38 38 37 38 39 41 40 36 33 32
4 4 5 3 3 3 2 3 4 5 2 3 3 1 6 4 7 12 15 15 18 21 24 26 25 28 26 16 7 6 15 23 26 28 32 33 32 33 33 34 38 40 39 36
3 4 2 4 3 1 3 0 3 1 2 2 4 4 9 6 10 13 11 13 15 18 21 23 24 24 25 25 16 8 8 17 23 25 25 25 27 28 30 32 34 36 38 38
4 4 1 4 4 5 5 4 3 3 6 6 5 6 8 13 16 11 4 13 17 19 20 21 22 23 22 24 19 19 6 11 18 23 25 26 27 27 26 28 30 33 34 35
2 4 3 4 5 2 2 1 2 1 2 5 3 6 9 15 16 6 2 14 17 18 20 21 21 20 19 21 21 18 15 10 12 16 19 23 23 24 27 30 30 30 32 33
5 4 1 3 3 6 5 6 3 5 4 2 4 7 11 13 6 1 12 23 24 21 19 20 23 22 19 19 19 18 14 11 7 2 6 12 21 23 26 26 26 29 30 33
3 2 3 4 3 2 5 5 5 4 4 2 4 7 9 8 11 23 28 27 23 24 26 23 21 23 23 20 19 18 14 11 11 8 6 8 7 13 21 25 26 27 26 28
5 5 3 2 3 5 10 6 5 4 3 3 5 8 11 14 19 22 26 28 29 27 26 26 25 23 23 23 22 20 18 16 13 13 10 9 11 10 9 12 22 25 25 27
4 3 3 6 2 3 9 3 5 2 3 6 6 8 11 15 19 23 25 27 28 28 27 23 24 27 24 24 24 24 21 20 17 15 12 13 16 15 12 11 12 15 26 25
5 5 2 2 7 10 9 5 4 3 1 4 7 9 12 15 22 27 24 25 29 28 27 24 25 25 28 26 25 25 25 23 22 19 17 11 14 14 16 15 17 15 19 25
2 11 6 4 6 3 8 11 7 10 9 8 8 9 12 13 22 23 23 24 28 28 26 27 26 25 26 27 27 25 25 26 26 24 20 19 15 14 17 21 21 23 19 19
11 7 6 4 9 9 7 16 13 15 12 9 8 11 10 15 20 20 23 25 26 26 27 33 30 28 26 24 25 25 25 26 27 28 26 23 21 21 21 21 27 24 25 24

GFSCGP_850_spd_093.txt.gz
Wind_Speed
20 13 17 20 21 20 17 20 15 12 15 12 10 13 21 19 16 18 16 20 20 23 23 21 20 19 18 17 17 17 16 16 15 12 11 10 8 7 8 7 6 6 5 4
13 18 16 15 16 19 15 21 14 13 9 9 16 19 16 19 24 21 20 22 23 23 24 22 21 20 19 19 18 18 17 16 16 12 12 9 11 9 7 8 5 7 6 6
15 15 16 13 14 13 17 16 13 15 8 16 14 14 11 12 14 31 23 21 25 24 26 25 23 21 19 19 19 20 20 18 18 13 11 11 9 8 6 7 5 8 7 6
16 10 17 13 15 17 18 16 10 12 15 12 15 9 19 20 16 12 18 22 23 27 28 27 25 22 20 18 20 19 19 19 18 17 11 10 8 8 10 8 10 6 8 8
17 12 13 16 17 16 11 15 3 14 14 11 16 8 8 21 18 16 20 20 24 32 27 29 26 24 22 18 19 20 20 20 18 19 15 8 11 9 9 7 9 8 8 8
16 13 13 18 16 16 5 13 9 9 14 14 12 14 12 8 12 4 18 21 22 25 25 29 27 28 23 21 20 20 20 19 20 18 20 15 10 7 8 6 6 7 7 7
13 10 17 14 17 14 11 15 11 11 11 11 16 16 11 10 7 2 11 23 20 26 27 22 28 31 25 25 23 21 21 21 21 19 17 17 15 10 7 4 7 7 8 12
12 14 12 13 17 12 17 20 12 12 13 14 17 9 9 10 10 8 7 5 23 19 32 26 25 27 28 26 24 22 23 22 21 22 21 18 16 12 10 10 11 9 8 11
14 11 7 6 14 5 18 20 23 12 14 14 13 19 12 12 12 13 14 8 9 19 16 24 27 26 26 27 25 24 24 25 22 21 22 21 19 17 13 12 11 11 11 17
6 11 13 10 8 14 13 15 19 9 13 18 16 17 13 14 13 12 14 25 22 18 12 4 4 14 23 25 23 23 24 24 22 21 21 21 20 19 20 16 16 15 13 9
10 5 11 6 15 16 12 13 20 13 15 13 11 10 19 14 14 14 24 19 17 18 19 14 7 10 7 17 20 21 22 21 21 21 22 21 20 19 18 19 18 16 18 16
4 7 12 17 5 6 11 13 16 11 19 13 4 10 14 16 18 24 20 16 18 20 19 15 15 12 7 3 11 17 22 21 20 20 21 22 21 20 20 20 19 18 16 18
2 9 6 6 8 9 11 10 12 18 17 14 15 12 10 17 16 20 21 17 16 17 18 18 18 18 16 12 5 7 14 17 19 19 21 21 21 20 21 22 20 21 19 16
5 12 9 4 9 15 18 7 12 13 11 12 8 24 19 16 16 17 18 16 16 17 17 18 20 20 19 16 7 10 8 3 10 16 20 21 21 21 21 21 22 21 23 21
5 9 5 3 6 7 10 14 7 15 16 9 20 20 17 16 13 14 17 14 15 16 17 18 18 18 20 20 13 1 2 1 6 6 13 19 19 19 20 21 21 21 22 23
3 4 9 7 1 1 6 7 5 6 2 7 23 17 15 14 15 12 12 12 13 14 15 16 17 17 18 19 19 14 5 4 3 5 8 14 10 19 20 20 22 22 23 24
5 5 7 12 6 6 11 13 11 9 5 9 13 18 14 11 9 9 10 11 11 12 12 13 14 15 16 16 16 19 17 8 4 6 7 11 15 15 17 19 21 23 23 23
5 9 9 11 5 11 3 6 3 8 9 6 14 12 13 10 8 12 8 8 9 9 10 10 11 12 12 13 14 14 15 17 9 5 7 8 9 11 16 20 21 22 24 24
5 7 7 11 10 5 7 5 6 11 11 2 12 10 10 8 10 11 7 7 6 7 8 9 10 11 11 11 12 14 12 13 15 13 8 9 9 10 11 13 18 22 25 25
5 7 6 7 11 15 14 11 3 1 11 10 7 9 7 7 10 12 3 4 5 6 7 9 11 11 10 11 12 12 12 12 12 14 15 13 10 8 11 16 13 15 22 22
7 7 10 10 8 4 11 9 6 9 6 12 9 8 4 2 13 6 4 6 7 8 8 9 10 11 11 12 13 13 13 12 13 13 13 15 14 11 8 4 5 11 18 20
7 5 6 9 10 10 13 8 5 10 13 12 8 7 7 6 3 4 5 6 7 8 9 10 11 11 12 13 14 15 15 15 15 15 15 15 16 16 14 14 9 8 10 13
5 2 4 3 5 8 9 6 11 10 12 8 8 7 5 3 2 2 4 6 7 9 10 10 11 12 12 11 13 17 17 18 19 17 18 17 18 19 19 17 14 11 10 9
7 2 2 4 8 5 9 7 6 6 8 8 6 5 3 2 2 3 5 5 7 9 11 12 11 10 11 13 15 18 20 20 20 21 18 20 18 18 20 18 13 12 11 12
7 8 8 9 4 7 9 9 9 9 8 7 5 3 2 1 2 4 5 6 7 8 9 12 12 12 14 15 17 18 18 19 21 22 20 20 21 18 19 19 17 18 18 16
12 9 7 5 9 13 9 16 12 12 9 7 5 4 1 1 2 5 5 5 7 8 10 11 12 14 16 18 16 18 15 17 19 22 22 21 21 21 20 19 21 20 25 27

GFSCGP_850_spd_096.txt.gz
Wind_Speed
16 12 16 20 19 20 18 18 17 13 16 13 13 11 11 19 19 23 24 26 25 24 26 23 22 23 21 20 21 19 17 18 15 14 13 9 7 7 2 5 7 6 5 10
12 17 17 19 19 21 23 19 7 4 17 18 21 15 16 24 22 22 22 19 21 23 23 26 24 23 24 22 22 21 18 18 17 11 12 8 10 4 7 9 6 8 6 8
19 14 20 17 18 20 23 18 16 13 22 17 23 16 17 16 24 22 23 22 24 25 20 27 27 26 25 24 23 24 22 19 21 13 12 9 16 13 5 6 8 9 7 11
19 19 19 18 18 15 17 19 14 23 17 12 20 12 32 28 16 6 10 26 27 29 30 27 28 27 28 26 23 24 25 19 24 16 15 12 7 6 11 8 12 13 9 5
18 17 12 18 16 14 15 17 13 14 18 14 16 10 12 19 23 22 31 30 32 29 27 29 29 29 29 27 26 25 25 22 23 23 17 11 13 12 16 13 13 11 10 11
15 18 13 16 14 12 21 14 15 8 12 12 10 15 13 10 4 26 45 35 30 26 29 32 30 29 29 29 28 26 26 24 24 24 17 16 13 7 9 10 7 9 5 8
14 18 13 11 15 18 18 15 9 9 10 10 15 9 7 17 6 19 5 31 37 16 33 38 35 32 30 32 31 28 25 24 25 23 24 17 16 11 9 11 8 10 6 8
13 13 11 12 21 16 16 16 9 14 11 11 18 12 9 15 7 16 29 21 44 38 41 39 39 36 28 30 34 32 26 25 25 22 21 20 17 15 12 8 12 8 5 6
12 17 18 18 16 15 19 17 18 16 19 15 9 12 9 10 12 11 28 23 30 10 38 23 33 31 32 37 36 37 28 25 25 26 24 21 18 16 12 11 9 7 9 6
9 15 17 9 9 8 14 14 17 14 13 14 12 18 15 16 17 18 22 24 22 21 13 8 10 28 23 11 37 35 33 29 24 25 27 25 21 17 17 15 14 11 8 10
12 8 9 11 13 13 11 13 13 17 14 9 9 1 16 17 16 16 21 21 17 18 18 23 15 5 27 18 20 31 32 30 28 25 25 25 24 21 23 22 20 17 19 16
13 8 11 13 11 16 18 17 16 11 18 6 6 2 13 13 19 19 18 19 18 17 20 19 18 19 18 18 7 18 8 21 26 23 27 27 24 22 21 24 24 18 21 22
9 7 5 13 5 5 8 16 16 18 17 6 10 6 5 14 19 20 18 15 17 17 20 22 22 22 17 13 4 8 17 10 11 23 25 27 30 27 27 22 20 21 19 19
6 11 8 6 11 10 18 17 13 15 11 15 15 18 19 19 16 22 19 16 17 18 20 20 22 24 21 18 16 10 11 9 2 10 3 25 26 27 27 25 22 21 21 20
4 9 8 3 10 15 14 19 11 11 14 11 13 20 14 16 16 20 19 14 15 16 17 19 20 21 23 27 23 17 4 5 3 8 11 24 23 24 23 23 23 21 21 24
3 6 4 7 4 10 14 17 12 11 12 16 11 17 13 23 28 17 17 14 14 15 15 16 17 20 23 23 24 24 16 5 5 1 2 5 12 8 15 17 20 21 22 22
3 6 3 10 5 5 8 7 4 4 6 16 16 12 18 16 19 17 14 12 12 12 12 13 14 16 18 19 18 22 21 16 11 8 7 5 2 4 6 12 15 16 19 22
4 7 8 9 7 11 8 8 10 10 6 15 15 16 17 18 18 17 12 10 9 9 9 10 10 11 12 13 14 14 15 19 16 14 12 13 10 6 5 11 13 13 17 22
5 7 7 11 11 11 8 3 5 8 13 15 15 16 17 17 21 14 10 8 7 6 6 6 7 9 9 11 12 11 14 14 14 17 15 14 13 12 11 9 12 17 19 21
5 6 8 6 14 13 4 11 5 3 11 11 20 13 14 11 10 11 11 7 5 4 4 5 6 6 6 8 10 11 11 11 11 12 14 14 12 12 11 11 15 16 19 21
4 5 9 8 7 6 9 6 3 8 4 16 11 15 9 5 11 15 9 7 4 5 5 7 6 6 7 9 10 10 10 11 12 9 10 11 11 11 11 11 12 14 17 20
4 5 6 8 10 8 11 6 4 11 15 13 12 12 10 11 10 9 7 6 5 5 6 7 6 7 8 10 10 9 9 11 11 14 13 12 14 13 13 14 14 14 15 14
3 6 5 6 5 8 8 17 15 15 16 12 14 10 11 9 8 7 5 3 3 3 4 6 6 6 4 6 8 11 13 16 15 15 15 16 13 19 17 17 16 13 10 13
4 6 2 3 8 7 9 8 10 13 14 11 12 11 9 8 7 6 4 3 1 1 3 4 5 5 7 10 11 12 16 16 15 17 15 18 18 15 23 17 17 15 14 15
7 2 4 7 3 4 7 7 8 9 12 12 11 10 9 8 7 5 4 2 1 1 2 3 5 6 8 9 11 11 16 17 16 14 16 13 18 17 20 23 16 18 19 20
8 9 5 5 6 11 8 14 12 12 13 12 12 10 8 8 6 5 3 2 1 1 3 5 6 8 9 10 10 10 9 14 17 16 14 15 17 16 18 20 22 24 23 19

GFSCGP_850_spd_102.txt.gz
Wind_Speed
6 4 5 8 5 7 3 5 4 6 8 6 7 14 20 26 22 22 25 30 26 36 40 37 31 28 27 22 21 19 23 15 23 19 15 13 13 11 14 11 11 13 15 17
5 5 8 7 7 6 5 3 5 8 8 8 6 14 19 25 30 28 27 30 32 33 41 38 34 30 28 24 22 21 18 13 22 16 16 10 12 10 9 12 12 13 16 15
6 7 9 6 7 8 8 6 9 6 9 4 6 2 4 3 16 23 27 30 37 38 40 40 37 32 30 26 25 22 19 13 20 16 13 12 12 10 10 11 11 13 11 13
6 8 5 7 8 8 7 9 13 18 8 5 6 4 5 7 9 17 25 27 34 39 41 40 40 36 32 29 25 22 21 17 18 21 16 10 13 9 9 7 8 11 9 11
8 6 7 7 13 8 10 6 10 17 5 8 2 3 2 9 9 15 15 25 28 38 37 42 41 36 32 29 25 21 23 20 19 26 18 10 12 12 9 9 11 13 10 12
9 15 7 9 9 10 7 4 8 7 4 2 10 6 4 9 17 21 18 27 31 30 32 39 39 36 32 29 26 22 22 22 22 27 20 15 13 13 16 12 13 13 14 13
5 7 10 9 7 4 5 6 1 2 1 6 13 4 6 11 16 24 20 25 29 27 24 30 35 38 34 32 28 24 22 23 27 27 22 18 16 16 14 14 16 15 14 16
3 6 5 3 8 6 3 8 5 5 5 2 10 6 6 12 15 13 16 22 23 20 13 20 28 37 36 32 30 26 23 22 27 30 24 19 17 16 12 14 16 12 11 14
3 5 5 3 5 9 3 2 6 2 1 4 4 1 7 9 4 11 14 14 21 23 25 18 21 28 34 33 34 29 23 20 26 30 26 22 20 18 14 13 14 14 12 11
5 3 2 5 1 3 6 3 3 4 1 3 3 4 2 4 6 6 8 13 19 20 19 19 22 31 31 27 23 27 27 23 24 28 28 26 22 20 19 14 15 15 12 12
4 2 7 3 1 6 4 3 5 4 4 4 4 2 3 9 10 8 11 11 18 19 21 18 18 23 23 26 14 12 20 27 26 27 30 28 25 22 18 18 18 18 16 15
1 4 1 6 5 4 5 5 5 5 3 3 4 2 6 13 15 14 14 21 16 11 10 7 9 13 21 16 18 14 5 19 25 23 28 27 26 25 22 20 21 19 18 17
5 4 3 7 7 8 5 4 5 5 2 4 5 3 7 19 15 13 22 24 24 21 17 12 12 11 11 19 11 17 23 15 19 18 23 25 26 27 25 24 23 23 21 19
2 4 4 3 5 3 5 9 1 6 3 3 3 16 11 14 18 21 13 21 21 23 23 21 20 16 10 9 15 19 22 27 25 15 21 24 22 24 25 27 25 27 24 23
4 3 4 4 7 2 5 10 7 3 5 5 14 17 13 15 15 20 34 22 23 26 27 23 24 22 17 16 12 11 12 17 21 15 15 24 21 18 20 27 26 24 25 26
6 3 6 7 6 7 5 15 6 7 9 12 17 12 18 28 29 26 26 29 26 26 28 26 24 20 22 21 14 13 10 10 11 22 20 19 11 15 22 21 24 22 20 22
4 3 3 3 7 5 6 6 6 3 3 17 11 20 30 21 26 26 27 29 29 29 27 23 22 22 20 18 19 19 16 15 11 9 9 11 17 16 13 14 23 18 19 22
3 3 3 3 5 3 5 6 5 10 6 18 21 19 21 27 25 32 33 33 28 26 25 22 20 18 17 18 15 15 14 14 13 13 11 11 9 11 13 10 15 19 20 18
6 4 2 3 2 4 7 8 3 7 5 17 21 22 31 35 38 25 26 26 26 22 21 19 17 14 13 12 13 11 10 10 11 12 10 9 8 7 7 6 7 13 15 16
6 6 4 2 2 3 2 3 13 12 2 5 29 29 34 32 12 10 28 27 25 21 17 18 15 13 10 9 7 8 8 6 6 6 6 7 5 4 4 3 1 2 5 6
4 3 3 0 2 1 4 7 12 4 7 16 26 31 27 7 15 32 31 26 22 21 16 12 11 8 7 5 4 6 5 6 5 5 5 5 4 3 1 1 1 2 2 2
2 1 0 0 2 2 12 4 5 2 3 20 27 28 23 35 41 33 28 25 20 15 12 8 8 7 5 5 8 8 7 6 8 10 10 10 9 7 6 5 3 1 3 3
1 5 4 4 4 5 15 17 16 21 24 27 34 34 41 38 32 26 21 15 12 12 10 7 5 4 2 3 4 5 5 5 5 7 9 12 12 11 10 9 8 6 4 5
4 1 3 4 5 5 13 17 16 20 26 25 24 26 26 28 24 23 20 15 10 6 3 3 5 5 3 2 3 3 4 4 3 2 3 6 9 10 10 10 10 9 8 7
4 2 3 1 3 4 4 9 17 16 15 19 18 19 25 26 27 26 22 16 11 7 5 4 5 6 4 2 2 1 3 4 4 3 2 3 4 7 10 10 11 10 8 11
5 1 3 4 2 5 12 14 13 16 15 16 17 15 16 19 25 22 18 13 10 7 5 5 4 3 3 3 2 1 3 5 7 8 7 6 4 5 8 10 13 16 17 16

GFSCGP_850_spd_105.txt.gz
Wind_Speed
7 3 6 8 5 5 4 2 9 6 8 6 5 6 10 22 13 12 14 21 31 37 38 37 32 29 26 21 17 19 21 17 17 16 16 13 12 10 11 10 12 12 11 14
5 6 8 6 7 5 3 4 6 8 7 7 10 9 8 18 13 13 15 17 31 30 36 39 35 32 28 22 19 17 19 15 18 16 13 11 11 8 12 9 10 11 13 14
5 4 5 4 2 5 3 5 6 8 7 5 8 2 8 11 14 16 18 19 32 33 38 39 38 34 29 24 22 19 21 14 19 17 14 13 12 10 12 11 10 11 12 12
4 6 4 3 4 6 2 7 8 14 10 5 7 3 5 12 13 15 19 23 34 37 41 42 39 37 31 26 22 20 22 16 15 19 17 13 12 10 8 9 10 11 10 13
6 5 6 5 8 6 9 6 13 13 4 5 4 2 2 11 11 10 18 24 36 42 47 45 42 38 32 27 24 20 23 19 16 21 17 12 11 11 8 9 11 13 10 9
6 4 5 8 4 10 2 9 11 5 3 2 7 6 5 12 17 23 28 26 34 40 43 46 44 39 35 29 25 22 22 22 20 20 22 16 10 12 11 9 10 15 12 13
6 5 5 6 4 1 4 7 2 3 1 5 5 2 4 12 18 26 29 23 32 33 34 33 35 41 38 33 29 24 22 23 22 19 25 21 14 11 11 13 10 13 14 14
3 3 7 3 10 8 7 9 6 6 5 3 5 5 3 7 19 12 27 26 28 33 35 37 35 42 39 35 30 25 24 20 21 22 25 22 17 14 13 12 12 13 13 12
3 5 4 4 5 10 4 4 6 7 2 4 3 1 4 9 9 16 23 26 25 31 34 37 35 31 32 36 35 32 28 23 18 23 24 21 18 15 12 10 12 12 11 12
3 2 1 5 4 4 7 6 3 3 5 3 3 1 2 3 6 6 13 18 21 26 30 32 28 37 34 35 35 33 29 22 19 21 25 24 18 15 14 11 11 14 13 13
3 3 6 1 3 6 3 2 6 5 3 5 3 4 4 3 8 11 13 18 21 21 24 27 28 32 30 32 33 30 27 23 23 22 22 27 23 19 16 16 12 13 14 14
2 4 2 3 4 4 1 5 5 5 3 3 4 3 4 9 11 15 19 20 21 22 22 23 29 29 30 29 18 22 20 21 22 22 21 24 26 23 21 18 16 16 17 16
2 3 2 6 6 7 7 4 4 5 3 4 5 3 4 13 14 17 21 21 22 18 17 20 21 26 26 29 26 21 17 19 19 10 12 19 21 22 20 21 22 21 20 18
3 3 3 4 5 2 3 4 3 4 4 6 3 10 8 10 13 18 24 23 22 22 20 18 17 17 17 21 16 16 15 14 17 18 10 10 16 21 20 21 23 21 21 21
4 4 1 2 3 3 1 3 3 3 4 5 15 16 15 12 11 12 22 33 25 20 19 19 19 16 14 15 13 13 10 14 16 18 5 13 24 17 14 15 22 26 26 23
4 2 0 6 6 6 4 8 9 5 6 7 19 13 6 20 23 20 20 24 27 23 23 21 17 17 19 16 11 7 4 7 10 15 15 16 8 20 23 18 22 15 24 23
4 2 3 1 4 5 6 8 6 4 2 21 16 11 18 16 19 24 24 29 28 25 23 20 18 19 20 19 18 18 17 15 20 24 20 15 16 12 12 20 18 19 19 17
3 4 3 1 4 4 4 7 9 11 3 5 15 18 19 22 19 22 28 33 32 29 24 19 17 17 15 15 15 15 15 16 17 17 15 14 15 16 17 12 10 21 20 24
5 3 3 3 2 1 6 8 4 3 7 7 22 19 24 29 30 16 26 27 27 26 24 21 15 13 12 11 11 10 11 12 12 13 10 10 9 8 8 9 9 14 16 21
5 7 4 2 2 4 6 8 5 8 3 3 22 23 31 32 10 8 28 26 24 22 19 19 16 11 8 6 4 3 4 5 6 7 6 6 7 7 7 7 5 3 4 6
4 4 3 1 1 3 3 10 12 5 7 24 25 33 32 12 12 33 31 26 22 20 19 15 12 9 7 6 4 4 4 4 3 2 2 2 3 4 4 3 2 3 4 4
2 3 1 1 3 2 8 6 5 3 2 30 31 39 31 23 33 37 33 29 25 23 18 13 10 8 5 4 5 6 7 9 10 10 9 9 8 8 7 6 5 5 4 5
1 4 4 4 5 7 6 1 2 5 13 27 33 31 32 35 46 39 35 29 22 17 14 10 7 5 5 6 6 6 5 6 6 7 10 11 11 11 10 9 9 9 8 8
2 2 3 3 3 2 8 11 13 7 14 26 31 28 32 42 42 38 32 27 22 16 11 7 6 7 8 8 7 7 6 6 6 5 5 7 9 11 11 11 10 10 10 10
3 2 3 1 3 0 4 11 15 17 19 22 23 27 35 39 36 32 28 23 19 16 12 8 6 8 8 7 6 6 5 4 4 4 4 4 5 5 7 10 11 11 11 12
1 4 3 4 3 2 5 9 16 18 19 18 21 25 27 28 28 25 22 19 15 11 8 6 6 6 7 7 6 5 3 3 2 2 2 3 3 4 5 6 5 9 11 13

GFSCGP_850_spd_108.txt.gz
Wind_Speed
6 4 6 5 5 5 3 4 8 5 2 5 2 5 4 12 12 12 17 27 26 32 30 29 26 23 22 20 18 17 18 18 16 14 14 12 12 9 9 8 9 11 10 11
5 6 7 6 4 5 5 5 5 5 2 4 4 5 7 16 16 11 14 27 30 28 27 31 28 26 24 22 20 19 19 15 15 12 12 9 8 9 9 9 11 12 11 11
6 3 11 5 5 5 2 6 4 6 5 6 8 4 4 7 14 12 12 17 31 32 30 32 32 29 27 26 22 21 20 14 11 14 12 11 9 10 9 9 12 11 12 12
3 3 8 6 4 5 4 7 10 14 5 4 2 3 4 10 13 13 14 14 28 32 32 32 34 32 30 27 24 22 20 15 12 18 13 10 10 8 6 9 8 10 11 13
5 6 5 4 6 6 6 7 15 11 5 4 6 2 3 10 12 13 12 16 30 34 34 34 38 35 32 28 25 22 21 19 13 18 14 12 10 8 7 10 9 10 10 12
5 2 5 8 5 10 5 9 9 5 3 2 8 5 4 11 21 21 29 29 29 36 37 34 40 36 33 30 26 23 22 21 17 15 16 14 10 11 9 9 9 11 10 10
4 4 4 5 4 2 4 5 2 3 1 5 4 4 6 9 10 27 35 34 30 38 39 37 42 39 36 34 29 26 22 24 20 17 18 16 13 8 8 7 7 10 11 10
5 5 7 4 8 7 8 8 5 5 5 3 3 5 4 6 12 19 22 30 27 35 36 37 41 39 36 33 30 26 23 23 22 19 16 18 16 11 8 8 10 9 10 8
5 5 3 5 5 9 5 4 5 7 3 3 2 3 4 7 5 17 22 27 27 36 37 38 38 30 24 25 30 29 27 23 23 19 17 17 18 14 11 8 11 10 9 9
3 2 2 2 5 4 5 6 3 3 5 3 2 2 3 3 3 7 16 19 25 34 38 37 39 31 22 26 28 27 28 25 21 19 18 18 18 14 11 10 7 9 12 7
4 3 5 1 1 7 2 1 6 5 3 5 4 4 2 4 5 8 11 14 22 31 35 36 38 34 27 23 33 29 28 26 25 22 18 17 18 17 12 10 6 5 8 9
1 4 3 2 2 2 1 4 5 5 3 1 3 2 2 5 9 12 13 17 18 24 30 33 36 28 31 32 31 27 24 17 16 20 20 17 17 18 16 14 10 9 8 8
4 2 2 5 6 5 6 3 4 5 4 4 5 3 5 9 9 15 14 17 18 18 22 23 26 28 31 29 28 24 21 18 16 19 22 19 15 15 18 18 17 15 13 12
5 3 4 6 4 3 3 5 3 5 4 5 3 10 10 10 9 15 18 19 20 17 16 23 23 23 29 29 24 22 22 21 23 19 15 13 11 10 13 15 15 15 14 14
4 3 3 4 3 5 5 7 6 1 5 6 8 12 15 13 13 16 23 25 23 20 17 14 14 14 18 21 24 19 17 16 14 17 16 8 7 12 13 15 16 17 18 18
6 4 4 5 6 7 5 11 9 5 3 5 11 5 6 16 16 15 15 17 21 21 21 21 18 13 13 14 20 17 16 12 11 12 14 12 6 8 20 13 11 16 19 18
4 6 2 3 7 3 4 7 4 3 1 6 7 7 19 15 17 17 19 23 25 25 24 21 20 21 19 16 14 13 11 12 15 18 19 15 7 12 11 9 11 12 16 14
3 3 3 1 6 3 2 4 8 6 6 5 4 17 16 20 19 21 24 27 24 25 25 24 23 21 19 18 18 18 16 14 18 19 17 16 16 16 13 11 7 6 8 14
5 4 3 4 1 4 2 3 2 1 4 3 9 15 20 25 25 14 23 24 26 25 24 24 22 20 20 17 15 13 16 14 11 9 8 10 8 9 8 6 7 9 6 7
5 7 4 2 5 7 1 2 7 3 2 4 12 19 24 24 6 5 25 24 23 21 19 19 19 20 14 15 11 9 11 9 9 10 9 7 5 3 5 8 8 10 9 7
4 4 3 1 1 5 2 12 9 5 5 17 25 27 24 5 7 31 30 26 22 19 19 18 15 12 9 9 6 4 3 3 3 4 5 4 4 4 4 4 3 1 2 4
1 3 1 2 3 2 12 7 1 3 6 27 27 26 27 19 27 33 28 27 25 23 19 14 10 6 5 4 2 2 3 4 5 6 7 7 6 5 5 5 4 4 5 7
1 4 3 4 4 5 8 4 8 6 5 15 29 28 28 26 37 36 33 28 23 18 15 12 8 6 6 5 4 3 3 2 3 3 4 7 9 10 10 9 8 8 7 7
2 1 2 3 2 3 5 6 10 11 4 16 25 31 26 30 37 33 28 25 22 18 13 9 5 3 3 3 2 2 3 4 4 4 4 4 5 7 9 10 11 11 10 11
3 1 3 2 5 1 1 1 5 8 7 11 20 24 25 24 31 30 28 26 21 16 13 9 6 6 6 6 5 3 2 1 2 3 4 4 4 4 4 6 8 9 10 11
4 5 4 5 6 3 1 4 4 6 6 10 17 20 17 15 25 27 23 18 16 14 10 8 7 6 6 7 7 5 3 2 1 2 3 2 3 2 2 2 3 4 7 9

GFSCGP_850_spd_111.txt.gz
Wind_Speed
6 9 12 11 7 1 3 7 10 9 4 10 5 4 10 18 21 25 23 23 23 23 21 19 19 20 20 18 17 18 19 17 15 15 13 11 12 10 8 9 11 9 9 9
5 16 10 6 4 2 6 12 7 6 6 4 7 4 9 17 19 21 24 24 25 20 19 21 23 22 22 20 17 17 18 18 16 14 12 10 10 10 9 8 9 11 10 10
11 2 11 9 7 7 3 5 9 7 8 6 10 5 7 12 17 11 17 23 23 23 22 23 24 25 24 23 20 18 18 16 17 13 14 10 9 9 9 9 10 11 11 10
8 4 15 10 11 9 7 5 9 14 8 5 5 2 2 11 17 17 17 18 25 25 25 24 26 26 26 23 20 18 19 17 15 15 13 11 8 8 7 8 7 9 11 12
6 12 11 11 10 9 2 8 11 8 4 5 4 4 5 12 13 20 24 25 23 27 26 25 27 29 27 23 22 19 20 19 15 16 12 8 8 7 5 9 7 8 10 12
4 4 8 7 5 11 10 15 11 3 2 4 7 5 7 12 16 19 29 27 27 28 28 27 27 24 27 25 24 21 21 21 16 15 15 10 8 7 6 7 6 8 9 10
7 6 4 4 7 6 10 15 4 3 4 3 1 8 5 14 11 24 27 32 29 27 27 25 23 26 31 29 27 24 23 23 18 15 16 12 9 4 7 6 4 6 9 9
10 10 10 7 10 7 15 12 6 6 6 5 4 7 2 2 11 19 26 31 23 25 24 25 27 25 31 29 27 25 23 22 21 17 15 14 12 9 5 6 5 6 9 8
9 8 3 8 7 12 6 8 3 3 2 5 4 3 4 3 8 17 24 24 30 25 25 25 22 26 30 30 28 24 23 22 21 19 15 14 14 12 8 7 7 8 9 10
3 5 4 8 7 4 7 11 8 4 7 7 5 4 3 1 3 13 18 25 29 27 25 23 24 29 30 26 22 20 20 21 20 22 17 14 12 13 10 8 7 6 11 10
5 2 4 6 9 14 7 5 1 3 2 7 5 4 2 2 5 9 13 14 21 27 26 30 30 29 22 22 18 24 22 15 18 22 21 16 14 14 12 9 7 5 9 10
2 2 4 2 2 3 3 9 9 9 8 1 2 2 2 2 9 12 12 11 12 17 24 28 32 31 31 32 24 25 26 16 15 18 20 19 17 15 17 14 10 10 8 9
6 1 3 5 5 3 3 2 2 4 3 6 6 3 3 5 9 11 14 14 17 18 21 25 26 26 27 25 20 24 22 14 17 19 21 20 18 17 17 18 14 12 12 11
2 3 2 3 3 2 4 4 4 5 7 7 3 7 10 9 9 11 12 15 20 21 24 27 28 26 27 25 23 25 23 18 20 18 12 18 21 19 17 17 16 14 15 14
1 5 4 6 8 10 9 5 3 2 1 7 8 12 14 11 11 12 13 15 17 21 19 22 24 26 22 20 21 23 20 19 16 18 16 15 17 18 16 15 16 14 13 14
5 3 4 4 8 2 11 12 8 7 3 4 10 5 12 14 13 13 13 15 18 17 16 18 17 23 21 26 23 21 22 20 19 17 17 19 17 18 17 15 15 15 13 14
4 2 2 2 8 4 3 9 6 2 2 1 6 1 17 15 16 14 13 15 16 17 18 18 18 18 19 23 23 22 21 20 18 20 20 15 12 10 9 16 14 12 10 11
3 3 0 2 7 4 4 2 7 3 3 2 4 6 14 13 11 14 13 16 16 18 19 18 18 20 19 15 16 15 15 15 17 17 17 14 8 6 7 8 7 8 5 9
4 3 3 4 6 2 3 3 6 7 2 3 5 12 18 20 17 8 10 16 20 20 21 22 22 21 20 18 17 17 16 16 15 16 15 9 6 5 3 5 5 5 3 4
6 6 3 2 5 6 4 2 7 6 1 2 10 16 21 23 10 7 17 21 23 21 22 23 22 21 18 17 15 14 13 13 16 11 8 7 4 4 5 5 4 4 4 8
3 3 2 2 1 2 4 13 4 2 3 2 12 18 25 16 1 24 29 26 23 24 24 22 19 16 14 13 11 10 12 11 12 12 9 7 6 5 5 4 4 6 5 5
1 1 1 1 1 3 10 1 2 5 8 6 11 16 22 10 19 30 24 27 26 25 22 18 17 14 11 9 7 7 7 7 7 8 8 7 7 6 5 4 4 4 3 3
2 1 1 2 1 3 5 3 8 8 8 6 12 14 16 17 23 26 27 27 25 22 20 15 11 10 8 7 6 4 3 3 3 4 5 7 8 8 8 7 7 7 8 9
3 3 2 3 4 2 1 2 7 10 8 5 10 15 16 19 22 23 24 25 22 19 17 13 10 6 4 4 3 3 3 3 4 4 5 5 5 7 10 11 11 10 10 10
0 2 1 1 4 4 0 3 7 10 11 6 7 13 17 19 21 22 24 23 20 16 14 11 8 4 3 4 4 3 3 3 3 4 4 4 4 5 6 7 8 10 11 12
6 4 4 3 0 0 2 1 4 5 6 4 2 10 14 16 21 25 24 20 17 15 11 7 4 3 6 6 5 4 4 4 5 4 4 4 4 3 3 4 4 6 7 8

GFSCGP_850_spd_114.txt.gz
Wind_Speed
14 11 17 18 14 8 7 7 10 12 12 14 10 10 16 24 21 26 25 25 23 21 19 17 16 16 15 14 15 14 14 17 15 12 11 9 9 9 9 10 10 11 9 8
9 15 15 12 8 8 9 10 13 12 16 8 11 9 16 22 26 29 28 26 23 22 21 18 16 17 16 15 14 16 14 15 14 14 12 9 9 9 8 9 10 10 9 10
13 9 9 12 12 10 7 9 13 13 13 9 12 6 10 17 25 28 28 26 26 23 21 20 19 18 17 16 15 15 16 14 14 12 10 10 10 9 7 8 8 9 9 9
11 7 14 15 15 12 11 1 6 13 15 6 16 3 8 18 18 19 27 27 27 26 23 21 21 20 18 17 15 14 15 14 15 13 12 9 7 7 7 7 8 9 10 9
8 11 18 17 14 10 5 6 8 12 4 10 10 3 7 20 17 16 22 29 29 28 26 22 22 22 19 17 17 15 15 15 14 14 12 9 6 6 4 7 8 10 10 10
1 14 13 13 10 10 2 9 6 4 3 7 11 9 12 17 26 26 28 27 29 28 28 24 22 20 20 18 17 17 17 17 14 14 13 9 7 7 7 8 7 7 8 9
8 13 9 10 14 12 13 14 7 8 7 4 4 8 4 19 14 25 31 35 31 29 29 27 22 21 21 21 19 18 17 18 16 12 12 10 8 6 7 6 7 9 9 10
13 14 16 11 14 13 18 18 8 10 10 9 6 6 3 6 15 17 27 31 31 29 28 27 23 21 27 22 20 19 17 17 16 13 11 13 11 8 7 7 8 6 7 8
12 11 18 11 14 10 16 19 17 15 6 10 10 6 6 7 11 16 25 31 29 27 27 25 25 22 22 24 22 20 17 16 15 14 12 12 12 11 8 9 8 7 8 9
3 10 12 16 16 17 14 14 13 9 10 12 8 10 6 10 11 16 21 32 30 24 25 26 24 22 21 27 21 23 17 17 14 14 15 10 11 11 11 8 7 8 10 12
9 9 12 14 15 17 11 13 14 14 14 8 10 8 7 9 8 16 23 28 32 35 30 25 24 22 21 23 23 21 17 15 16 14 16 13 11 11 12 9 8 7 9 11
10 8 8 18 13 13 21 17 17 11 12 12 9 5 5 5 10 12 16 19 23 27 27 24 25 21 20 22 23 22 17 12 12 13 15 16 13 11 11 11 8 7 6 11
5 9 9 8 9 9 14 16 18 20 17 16 11 3 6 8 8 12 13 16 15 19 22 23 25 25 23 19 23 23 25 22 12 13 14 15 15 13 13 13 12 11 10 10
4 4 11 4 14 16 17 12 16 13 13 14 12 6 8 10 10 11 13 16 17 22 23 27 28 21 17 17 22 21 18 21 17 11 14 14 14 14 13 14 16 15 13 12
3 2 5 5 6 4 8 15 15 15 18 12 8 12 9 10 11 14 12 13 16 16 19 21 28 26 27 26 23 23 20 19 17 14 11 10 12 14 15 16 16 16 15 13
5 2 3 6 4 5 9 5 6 5 6 7 8 6 5 10 11 12 13 13 15 17 14 18 20 21 23 23 26 26 24 17 14 18 17 18 14 15 16 15 16 18 15 12
2 5 5 8 1 7 10 6 4 3 1 6 10 8 9 11 10 11 14 12 12 15 16 15 18 20 21 22 22 22 22 20 22 20 19 17 18 19 18 15 13 14 15 12
6 3 6 3 4 11 8 4 4 5 4 3 3 3 7 11 14 12 11 13 12 14 13 15 16 16 20 20 20 20 20 21 20 18 17 17 16 13 11 11 12 13 12 9
0 3 3 5 9 6 4 8 7 7 5 5 1 7 12 15 16 10 11 12 14 13 13 14 15 16 17 17 16 16 17 17 17 18 15 11 12 11 10 10 11 11 9 8
3 1 5 8 4 7 6 5 7 7 4 10 3 6 10 16 9 6 14 15 15 14 14 16 17 16 15 15 15 17 19 20 20 17 15 12 10 10 11 11 11 12 12 11
3 3 6 4 5 7 5 6 2 6 4 11 4 5 9 10 6 26 20 19 18 19 20 19 18 16 15 14 13 12 14 16 20 17 14 13 12 11 12 11 10 10 10 9
3 3 3 2 4 4 10 1 5 7 7 9 2 1 6 6 13 20 22 22 20 23 21 19 18 16 15 14 11 8 9 10 12 13 15 13 12 10 11 12 13 13 13 12
3 4 4 4 5 5 7 9 7 8 9 7 5 2 6 7 15 20 20 19 19 19 17 13 12 11 9 10 9 8 8 9 9 9 9 11 11 10 10 9 8 7 7 8
3 1 2 3 6 5 5 5 8 10 10 8 1 5 9 13 19 19 20 19 18 17 15 13 11 9 7 6 5 5 6 7 8 8 8 9 9 9 9 7 6 5 5 5
3 5 3 4 4 3 5 5 5 8 9 10 6 6 10 14 19 20 20 20 18 16 14 12 10 8 4 3 3 4 5 5 4 5 5 5 5 6 8 9 8 9 12 11
8 5 5 2 6 3 6 3 3 4 6 7 6 5 8 13 18 19 20 18 19 16 12 10 8 5 3 2 3 4 5 6 6 5 5 5 4 5 6 5 8 9 9 9

GFSCGP_850_spd_117.txt.gz
Wind_Speed
17 12 17 20 21 5 8 13 19 15 14 14 13 10 16 16 9 16 24 25 24 22 21 19 18 16 15 14 13 11 15 15 14 11 13 12 13 12 12 11 8 9 6 5
11 16 17 19 13 10 13 3 20 11 16 5 11 16 20 20 23 19 21 25 24 22 23 20 19 18 16 14 13 13 12 14 14 10 11 11 12 11 12 10 10 8 7 6
14 15 18 17 15 10 16 4 17 19 19 14 14 10 20 22 20 22 19 26 26 27 26 22 22 19 17 16 14 14 11 14 14 10 8 10 10 8 9 7 9 10 8 8
14 9 15 14 14 15 16 4 14 23 23 9 21 4 15 18 19 22 19 27 25 26 22 29 23 20 20 15 13 14 13 12 13 13 10 12 10 9 9 7 9 9 9 9
15 10 12 16 18 16 2 11 16 33 14 9 17 6 11 20 20 23 27 29 31 26 34 28 23 23 19 17 15 13 14 11 14 12 15 10 8 6 6 8 9 12 12 9
17 11 12 17 18 12 4 10 7 8 5 11 13 7 13 16 25 26 35 36 37 39 26 30 24 26 21 18 16 15 15 13 12 12 10 10 8 7 7 9 6 7 6 9
14 11 15 16 18 8 10 12 5 7 7 3 22 11 9 24 31 33 26 34 29 30 31 28 24 26 24 22 18 17 17 16 14 12 11 9 8 6 6 8 7 8 8 9
14 12 16 11 17 13 17 13 7 9 10 10 10 6 11 21 34 32 32 30 27 25 28 29 28 28 20 25 19 18 18 17 15 14 13 10 9 6 7 7 7 7 8 10
14 18 20 15 14 18 16 16 18 14 18 4 9 9 11 12 22 23 32 35 33 30 27 28 29 26 21 24 22 19 18 17 16 13 14 13 11 9 8 9 8 8 9 10
10 11 19 17 14 17 17 17 16 11 19 15 12 9 12 17 17 17 25 36 39 35 26 29 29 25 25 22 27 20 18 19 17 15 11 10 10 9 9 7 9 10 10 10
13 9 10 12 18 19 13 14 16 16 16 7 8 3 2 20 18 19 25 30 32 20 26 19 26 27 26 27 19 23 20 18 18 17 15 13 11 9 9 8 8 8 12 16
14 8 13 19 15 20 18 18 15 12 20 14 4 5 4 6 14 22 19 26 31 34 34 16 18 19 24 14 22 23 24 18 17 16 15 14 13 11 10 10 9 8 9 13
5 10 12 7 16 18 19 16 21 20 17 17 12 4 6 3 6 14 29 23 26 27 26 28 21 17 27 22 20 20 21 20 15 16 16 16 15 12 12 12 13 9 8 9
8 14 13 4 5 11 17 20 20 19 14 17 14 20 15 14 12 10 14 14 21 25 25 29 24 20 19 19 19 24 20 16 18 19 15 18 16 16 13 13 14 13 13 10
9 17 15 6 17 22 19 21 18 18 19 17 3 11 21 20 18 17 16 15 17 21 20 26 26 27 27 23 20 22 21 20 17 18 18 15 15 14 16 17 16 15 15 13
8 9 11 10 10 16 11 20 15 18 20 15 5 15 3 24 26 22 18 16 16 14 20 22 24 32 25 21 21 20 20 20 17 16 13 12 13 12 11 13 18 18 17 15
8 4 5 10 10 10 6 1 9 8 10 7 8 3 7 19 13 17 17 12 14 17 21 18 22 19 17 17 19 22 20 19 19 25 20 20 15 14 12 13 17 17 17 17
7 3 8 1 11 16 8 16 10 7 7 7 3 7 10 18 19 14 11 15 13 15 18 21 19 19 21 18 16 17 21 18 19 15 15 12 10 12 14 16 15 15 15 15
7 3 5 4 2 8 14 13 10 13 9 5 5 13 11 14 17 12 9 10 13 14 16 18 18 21 22 21 19 18 17 23 20 19 14 12 11 13 12 11 17 16 12 13
6 9 11 3 10 3 7 11 7 10 8 22 12 7 5 3 4 9 13 15 14 13 14 15 14 14 14 16 19 18 18 19 18 16 11 9 10 11 13 12 9 11 13 13
6 8 10 1 4 5 2 3 19 12 5 11 5 3 7 3 11 21 18 16 14 15 17 17 16 15 15 13 13 15 17 19 20 20 19 13 9 11 9 9 11 11 13 14
1 4 6 4 9 4 9 1 3 4 4 8 8 9 15 13 9 14 16 18 19 18 17 16 17 17 16 15 11 13 13 14 16 20 15 13 12 7 9 10 11 9 9 8
4 5 3 8 4 7 9 12 8 6 7 6 5 4 10 7 13 15 17 18 18 18 18 15 15 15 13 11 9 9 8 9 9 9 9 12 12 9 8 10 9 6 9 6
3 3 4 1 8 7 6 8 8 8 9 8 4 1 4 9 16 16 18 16 16 15 12 11 14 11 10 8 6 6 7 7 6 7 8 9 7 8 6 5 5 6 5 7
5 6 6 4 8 5 4 5 4 6 7 8 6 3 4 10 14 15 15 17 16 15 14 12 11 10 9 8 7 6 7 7 6 6 6 5 5 7 10 14 14 14 17 16
9 4 5 2 6 6 9 4 1 1 3 4 5 4 4 8 14 13 15 16 15 15 14 13 11 10 9 7 6 5 5 6 5 4 4 5 5 5 5 8 15 14 9 14

GFSCGP_850_spd_123.txt.gz
Wind_Speed
8 2 7 11 12 16 7 7 13 9 7 5 2 2 10 13 10 24 24 27 29 28 26 27 25 23 21 23 20 19 18 17 20 17 19 21 16 18 15 11 8 9 11 18
2 10 11 15 15 15 14 10 11 8 15 3 5 6 10 15 10 12 19 26 29 29 31 29 30 24 22 22 22 21 16 19 19 20 22 20 14 14 17 11 9 8 9 14
9 12 18 15 12 14 15 16 11 10 11 6 10 3 7 11 15 21 18 13 31 37 35 33 32 25 22 25 25 21 19 18 18 18 23 24 18 15 16 13 9 10 11 13
9 17 14 11 10 8 3 13 14 21 9 4 8 2 6 10 15 12 18 14 11 38 36 35 32 30 26 22 21 19 20 17 17 17 22 23 23 19 17 12 7 9 10 13
11 10 9 9 9 13 8 24 17 20 6 9 4 1 4 11 18 20 20 15 16 35 34 37 33 32 28 23 22 18 18 17 20 18 20 16 17 13 21 16 14 11 12 11
9 19 7 8 7 4 19 17 9 4 4 3 10 4 7 12 27 21 23 20 18 33 31 37 31 28 27 24 21 21 19 21 21 19 18 19 16 15 16 16 17 16 13 14
8 10 9 12 4 11 19 12 2 1 3 4 4 8 15 13 18 26 26 24 24 28 27 33 34 33 32 30 27 26 21 21 23 21 19 21 19 14 19 20 14 12 14 16
6 6 7 3 5 7 11 10 5 5 2 5 7 6 7 16 22 32 36 27 32 33 36 36 36 33 36 33 35 27 22 20 22 23 24 20 17 14 16 14 15 10 12 10
4 6 6 10 9 8 9 6 15 8 4 4 6 4 14 8 12 23 29 29 31 29 37 33 39 39 32 37 40 28 22 19 22 22 21 18 16 14 14 12 14 15 11 12
7 4 8 6 11 12 7 5 2 3 8 4 7 6 3 10 5 4 17 28 29 30 33 31 44 38 32 42 39 31 23 18 17 20 21 20 17 15 13 14 14 13 11 10
7 4 11 9 5 7 5 5 3 1 3 3 3 4 7 16 4 3 11 15 27 29 32 32 45 43 39 35 38 33 25 20 19 19 18 17 16 19 15 15 16 14 15 15
8 3 5 8 9 11 8 8 7 5 8 2 5 5 8 16 13 10 25 30 32 35 36 40 41 46 38 27 34 33 28 20 17 19 15 12 14 14 12 13 12 15 15 16
6 5 5 10 7 6 5 8 6 4 2 5 3 4 12 14 16 22 29 34 40 30 32 37 37 39 46 34 31 31 30 22 21 20 18 15 13 14 10 8 12 11 11 13
9 4 4 1 7 10 8 12 9 5 2 5 4 5 10 9 10 7 17 25 30 37 43 39 43 44 41 38 31 29 26 23 21 22 21 20 17 15 12 12 11 14 12 11
3 6 5 8 10 9 7 14 14 8 9 5 6 6 9 9 7 5 17 24 23 27 38 39 41 39 43 37 24 22 22 18 21 24 24 26 23 20 21 16 17 16 15 14
5 4 6 5 12 10 6 13 21 15 14 9 12 7 2 13 6 17 14 33 29 27 29 31 34 37 39 30 18 22 16 22 27 25 19 19 29 18 21 25 19 17 20 16
3 3 5 0 8 10 4 14 18 12 16 5 5 5 7 7 12 17 24 18 9 20 22 25 25 28 28 22 26 28 23 26 27 19 17 17 15 14 22 29 24 20 18 18
3 1 2 2 6 2 1 13 9 14 13 14 13 11 11 17 17 14 8 6 5 7 19 23 24 29 25 28 31 26 21 21 20 18 14 11 13 15 16 17 17 18 17 19
17 3 3 2 1 1 4 5 6 7 6 7 7 8 18 18 20 20 11 11 9 6 8 9 21 25 30 28 26 21 19 18 16 14 10 12 15 15 15 16 17 18 15 14
11 13 2 5 4 1 3 10 13 8 5 6 9 9 10 10 5 3 13 9 8 6 9 11 16 23 25 22 21 17 14 15 14 13 14 13 11 10 9 9 11 11 12 14
4 4 7 8 3 3 5 13 15 3 4 15 16 16 11 5 8 10 10 8 8 8 8 8 9 11 12 13 14 16 17 17 20 17 14 11 9 8 8 9 7 5 6 9
1 2 3 3 4 2 4 9 1 3 14 14 16 12 12 12 17 14 10 8 8 10 9 8 9 9 8 9 11 17 18 15 13 15 13 12 10 8 8 9 9 7 5 5
1 5 5 6 5 7 15 13 15 13 12 7 10 17 20 19 16 13 11 8 7 10 12 10 9 9 9 9 9 11 11 12 14 19 21 20 17 15 14 12 9 9 8 5
2 5 4 5 10 9 14 15 16 14 12 12 15 20 18 22 18 16 15 15 15 13 12 10 11 12 13 11 11 9 11 11 12 13 12 13 14 14 14 14 15 13 11 9
7 11 7 3 7 7 16 15 13 10 11 13 12 16 17 21 19 20 19 19 16 15 13 11 11 11 11 10 10 9 10 10 11 10 10 10 9 8 10 11 10 11 13 11
1 3 2 3 14 7 13 11 7 8 10 9 12 14 14 14 15 14 14 13 14 14 13 12 12 13 13 12 12 12 10 10 10 11 11 9 8 4 5 7 8 8 8 10